#timestamp,LO_Frequency,Hit,StdDev 
1621404015.7,286047004.0,N
1621404035.5,286047001.5,N
1621404055.4,286047001.0,N
1621404075.2,286046997.0,N
1621404095.1,286047000.4,N
1621404096.0,286047000.4,N
1621404115.8,286047001.4,N
1621404135.6,286047004.1,N
1621404155.5,286047001.6,N
1621404175.3,286047003.1,N
1621404195.1,286047004.4,N
1621404215.9,286047003.7,N
1621404235.7,286046999.7,N
1621404255.6,286046999.8,N
1621404275.0,286047001.7,N
1621404275.9,286047001.7,N
1621404295.8,286047003.7,N
1621404315.6,286047003.1,N
1621404335.4,286047005.3,N
1621404355.3,286047003.3,N
1621404375.1,286047003.8,N
1621404395.8,286047004.0,N
1621404415.7,286047003.5,N
1621404435.5,286047003.0,N
1621404455.4,286047002.7,N
1621404475.2,286047000.6,N
1621404495.0,286046997.1,N
1621404495.9,286046997.1,N
1621404515.8,286046996.7,N
1621404535.6,286046999.0,N
1621404555.4,286046998.1,N
1621404575.3,286046999.3,N
1621404595.1,286047000.3,N
1621404615.9,286047001.4,N
1621404635.7,286047002.0,N
1621404655.5,286047001.7,N
1621404675.4,286047004.0,N
1621404695.2,286047000.2,N
1621404715.1,286046999.6,N
1621404716.0,286046999.6,N
1621404735.8,286047000.8,N
1621404755.6,286047000.2,N
1621404775.5,286047002.4,N
1621404795.3,286046999.8,N
1621404815.1,286047002.1,N
1621404835.9,286047002.2,N
1621404855.7,286047003.5,N
1621404875.6,286047002.1,N
1621404895.4,286047002.0,N
1621404915.2,286047005.5,N
1621404935.1,286047003.3,N
1621404936.0,286047003.3,N
1621404955.8,286047000.3,N
1621404975.7,286047002.2,N
1621404995.5,286047001.7,N
1621405015.3,286047002.1,N
1621405035.2,286047001.6,N
1621405055.0,286046999.8,N
1621405055.9,286046999.8,N
1621405075.7,286047001.9,N
1621405095.6,286047002.8,N
1621405115.4,286046999.8,N
1621405135.3,286047004.0,N
1621405155.1,286047005.6,Y
1621405175.8,286047001.4,P
1621405195.7,286047001.8,P
1621405215.5,286047002.2,P
1621405235.4,286047000.9,Y
1621405255.2,286046994.9,P
1621405275.0,286046997.7,N
1621405275.9,286046997.7,N
1621405295.8,286046995.3,N
1621405315.6,286046999.2,N
1621405335.5,286046999.5,N
1621405355.3,286046997.4,N
1621405375.1,286046997.4,N
1621405395.9,286046998.9,N
1621405415.7,286046998.4,N
1621405435.5,286046999.5,N
1621405455.4,286046996.6,N
1621405475.2,286046999.4,N
1621405495.1,286046999.9,N
1621405496.0,286046999.9,N
1621405515.8,286047002.6,N
1621405535.6,286046999.8,N
1621405555.5,286047002.6,N
1621405575.3,286046999.8,N
1621405595.2,286047002.2,N
1621405615.9,286047001.0,N
1621405635.7,286047000.9,N
1621405655.6,286047002.2,N
1621405675.4,286047000.4,N
1621405695.2,286047000.3,N
1621405715.1,286047002.8,N
1621405716.0,286047002.8,N
1621405735.8,286047003.4,N
1621405755.7,286047001.4,N
1621405775.5,286046999.8,N
1621405795.1,286046998.6,N
1621405796.0,286046998.6,N
1621405815.8,286046999.3,N
1621405835.6,286046999.2,N
1621405855.5,286047000.8,N
1621405875.3,286047002.7,N
1621405895.2,286047000.1,N
1621405915.9,286047001.5,N
1621405935.7,286047000.3,N
1621405955.6,286047000.6,N
1621405975.4,286047000.8,N
1621405995.2,286046998.0,N
1621406015.1,286046995.5,Y
1621406016.0,286046995.5,P
1621406035.8,286046995.5,N
1621406055.7,286046995.5,N
1621406075.5,286046997.4,N
1621406095.3,286046995.8,N
1621406115.2,286046995.3,N
1621406135.0,286046995.4,N
1621406135.9,286046995.4,N
1621406155.8,286046995.8,N
1621406175.6,286046997.3,N
1621406195.4,286046998.3,N
1621406215.3,286046999.7,N
1621406235.1,286046999.8,N
1621406255.8,286046998.2,N
1621406275.7,286047000.4,N
1621406295.5,286047000.5,N
1621406315.4,286046998.2,N
1621406335.2,286046998.1,N
1621406355.0,286046996.7,N
1621406355.9,286046996.7,N
1621406375.8,286046998.8,N
1621406395.6,286046996.8,N
1621406415.4,286046996.6,N
1621406435.3,286047001.1,N
1621406455.1,286046998.8,N
1621406475.9,286046997.8,N
1621406495.7,286046997.0,N
1621406515.5,286046998.8,N
1621406535.4,286046997.4,N
1621406555.2,286046997.7,N
1621406575.0,286046997.2,N
1621406575.9,286046997.2,N
1621406595.8,286046996.9,N
1621406615.6,286046999.6,N
1621406635.5,286046997.2,N
1621406655.3,286046999.5,N
1621406675.1,286046998.1,N
1621406695.9,286046998.5,N
1621406715.7,286047000.9,N
1621406735.5,286047000.5,N
1621406755.4,286047003.9,N
1621406775.2,286047001.3,N
1621406795.1,286047007.0,Y
1621406796.0,286047007.0,P
1621406815.8,286047006.4,N
1621406835.6,286047004.8,N
1621406855.5,286047004.4,N
1621406875.3,286047003.9,N
1621406895.1,286047001.8,N
1621406915.9,286047001.4,N
1621406935.7,286047001.7,N
1621406955.6,286047003.9,N
1621406975.4,286047005.3,N
1621406995.2,286047004.8,N
1621407015.1,286047005.3,N
1621407016.0,286047005.3,N
1621407035.8,286047001.9,N
1621407055.7,286047000.5,N
1621407075.5,286047001.1,N
1621407095.4,286046998.8,N
1621407115.2,286046996.9,N
1621407135.0,286046999.7,N
1621407135.9,286046999.7,N
1621407155.8,286047001.6,N
1621407175.6,286047001.9,N
1621407195.4,286047002.3,N
1621407215.3,286047001.3,N
1621407235.1,286047003.8,N
1621407255.9,286047003.9,N
1621407275.7,286047004.0,N
1621407295.5,286047001.4,N
1621407315.4,286047004.4,N
1621407335.2,286047001.9,N
1621407355.0,286047001.3,N
1621407355.9,286047001.3,N
1621407375.8,286047000.7,N
1621407395.6,286047002.3,N
1621407415.5,286047001.6,N
1621407435.3,286047002.0,N
1621407455.1,286047001.5,N
1621407475.9,286047002.7,N
1621407495.7,286047002.3,N
1621407515.5,286047002.4,N
1621407535.4,286047001.1,N
1621407555.2,286046996.5,N
1621407575.1,286047000.1,N
1621407576.0,286047000.1,N
1621407595.8,286047001.9,N
